Weather History for KALS - August, 2014

Change the Weather History Date:

Wednesday, August 27, 2014

  Actual Average Record
Temperature  
Mean Temperature 60 °F 61 °F  
Max Temperature 76 °F 78 °F 87 °F (2002)
Min Temperature 43 °F 44 °F 32 °F (1992)
Degree Days  
Heating Degree Days 5 4  
Month to date heating degree days 73 66  
Since 1 June heating degree days 221 279  
Since 1 July heating degree days 95 111  
Cooling Degree Days 0 0  
Month to date cooling degree days 3 12  
Year to date cooling degree days 60 50  
Since 1 June cooling degree days 60 50  
Growing Degree Days 11 (Base 50)    
Moisture  
Dew Point 43 °F    
Average Humidity 58    
Maximum Humidity 96    
Minimum Humidity 20    
Precipitation  
Precipitation 0.00 in 0.04 in 1.31 in (1993)
Month to date precipitation 0.53 1.11  
Year to date precipitation 3.88 4.79  
Snow  
Snow 0.00 in 0.00 in 0.00 in (2002)
Month to date snowfall 0.0 0.0  
Since 1 June snowfall 0.0 0.0  
Since 1 July snowfall 0.0 0.0  
Snow Depth 0.00 in    
Sea Level Pressure  
Sea Level Pressure 30.12 in    
Wind  
Wind Speed 7 mph (SW)    
Max Wind Speed 23 mph    
Max Gust Speed 32 mph    
Visibility 10 miles    
Events      
T = Trace of Precipitation, MM = Missing Value Source: NWS Daily Summary

Daily Weather History Graph

Daily Weather History Graph

Search for Another Location

Airport or City:

Trip Planner

Search our weather history database for the weather conditions in past years. The results will help you decide how hot, cold, wet, or windy it might be!

Date:

Astronomy

Aug. 27, 2014 Rise Set
Actual Time 6:29 AM MDT 7:39 PM MDT
Civil Twilight 6:02 AM MDT 8:06 PM MDT
Nautical Twilight 5:30 AM MDT 8:38 PM MDT
Astronomical Twilight 4:56 AM MDT 9:11 PM MDT
Moon 8:25 AM MDT (8/27) 8:37 PM MDT (8/27)
Length of Visible Light 14h 03m
Length of Day
13h 09m
Waxing Crescent, 4% of the Moon is Illuminated
Aug 27
Waxing Crescent
Sep 2
First Quarter
Sep 8
Full
Sep 15
Last Quarter
Sep 24
New

Hourly Weather History & Observations

Time (MDT) Temp. Dew Point Humidity Pressure Visibility Wind Dir Wind Speed Gust Speed Precip Events Conditions
12:52 AM 52.0 °F 50.0 °F 93% 30.08 in 10.0 mi East 3.5 mph - N/A   Overcast
1:52 AM 53.1 °F 51.1 °F 93% 30.08 in 10.0 mi WSW 3.5 mph - N/A   Overcast
2:52 AM 53.1 °F 51.1 °F 93% 30.08 in 10.0 mi ENE 4.6 mph - N/A   Overcast
3:52 AM 53.1 °F 51.1 °F 93% 30.12 in 10.0 mi Calm Calm - N/A   Overcast
4:52 AM 52.0 °F 50.0 °F 93% 30.12 in 10.0 mi WSW 3.5 mph - N/A   Partly Cloudy
5:52 AM 51.1 °F 50.0 °F 96% 30.14 in 10.0 mi SW 4.6 mph - N/A   Clear
6:52 AM 50.0 °F 48.0 °F 93% 30.15 in 10.0 mi Calm Calm - N/A   Clear
7:52 AM 53.1 °F 51.1 °F 93% 30.16 in 10.0 mi SE 3.5 mph - N/A   Clear
8:52 AM 57.9 °F 50.0 °F 75% 30.15 in 10.0 mi SSE 6.9 mph - N/A   Clear
9:50 AM 62.6 °F 50.0 °F 63% 30.37 in 10.0 mi Calm Calm - N/A   Mostly Cloudy
9:52 AM 62.1 °F 50.0 °F 65% 30.15 in 10.0 mi Calm Calm - N/A   Mostly Cloudy
10:26 AM 64.4 °F 48.2 °F 56% 30.36 in 10.0 mi SSE 4.6 mph - N/A   Scattered Clouds
10:52 AM 64.9 °F 48.0 °F 54% 30.13 in 10.0 mi SE 4.6 mph - N/A   Clear
11:52 AM 70.0 °F 43.0 °F 38% 30.08 in 10.0 mi SSW 8.1 mph - N/A   Scattered Clouds
12:52 PM 68.0 °F 42.8 °F 40% 30.32 in 10.0 mi WSW 5.8 mph - N/A   Overcast
1:52 PM 75.0 °F 37.9 °F 26% 30.02 in 10.0 mi SW 11.5 mph 18.4 mph N/A   Clear
2:52 PM 75.9 °F 32.0 °F 20% 30.00 in 10.0 mi SW 16.1 mph 25.3 mph N/A   Clear
3:52 PM 73.4 °F 30.2 °F 20% 30.27 in 10.0 mi SW 13.8 mph - N/A   Partly Cloudy
4:52 PM 70.0 °F 30.9 °F 24% 30.00 in 10.0 mi WSW 16.1 mph - N/A   Partly Cloudy
5:52 PM 71.1 °F 30.0 °F 22% 30.01 in 10.0 mi WSW 16.1 mph 23.0 mph N/A   Clear
6:52 PM 63.0 °F 37.0 °F 38% 30.05 in 10.0 mi West 18.4 mph 25.3 mph N/A   Clear
7:52 PM 61.0 °F 39.0 °F 44% 30.08 in 10.0 mi West 16.1 mph - N/A   Overcast
8:52 PM 57.9 °F 39.0 °F 49% 30.11 in 10.0 mi NNW 8.1 mph - N/A   Partly Cloudy
9:52 PM 53.1 °F 39.9 °F 61% 30.11 in 10.0 mi North 8.1 mph - N/A   Clear
10:52 PM 48.9 °F 41.0 °F 74% 30.11 in 10.0 mi NNE 3.5 mph - N/A   Clear
11:52 PM 46.9 °F 39.9 °F 77% 30.09 in 10.0 mi Calm Calm - N/A   Clear